DW7733 Weather Reports


time (UTC)temp
F
wind
direction
speed
knots
gust
knots
rain 1hr
in
rain 24hr
in
rain mn
in
humidity
%
barometer
mb
20260506044549 48 146 0.0 0.0 0.00 0.02 0.00 93 1007.0
20260506043033 48 147 0.0 0.0 0.00 0.02 0.00 93 1007.2
20260506041533 48 146 0.0 0.0 0.00 0.02 0.00 93 1007.2
20260506040029 48 142 0.0 0.0 0.00 0.02 0.00 92 1007.1
20260506034529 48 142 0.0 0.0 0.00 0.02 0.02 92 1007.1
20260506033028 48 139 0.0 0.0 0.00 0.02 0.02 92 1007.1
20260506031531 48 132 0.0 0.9 0.00 0.02 0.02 91 1007.1
20260506030027 48 134 0.0 0.9 0.00 0.02 0.02 91 1007.3
20260506024531 48 134 0.0 0.9 0.00 0.02 0.02 91 1007.0
20260506023023 48 156 0.0 0.9 0.00 0.02 0.02 91 1007.0
20260506021523 48 143 0.0 1.7 0.00 0.02 0.02 91 1007.1
20260506020021 48 137 0.0 0.0 0.00 0.02 0.02 91 1007.1
20260506014521 48 129 0.0 0.0 0.00 0.02 0.02 91 1007.1
20260506013024 48 149 0.0 0.0 0.00 0.02 0.02 91 1007.0
20260506011525 48 131 0.0 0.0 0.00 0.02 0.02 91 1006.8
20260506010019 48 136 0.0 0.0 0.00 0.02 0.02 90 1006.7
20260506004518 48 143 0.0 0.0 0.00 0.02 0.02 89 1006.6
20260506003018 48 141 0.0 0.0 0.00 0.02 0.02 89 1006.4
20260506001517 49 141 0.0 0.0 0.00 0.02 0.02 87 1006.3
20260506000015 49 144 0.0 0.9 0.00 0.02 0.02 86 1006.1
20260505234532 49 116 0.0 0.0 0.00 0.02 0.02 85 1006.1
20260505233017 50 131 0.0 0.0 0.00 0.02 0.02 84 1006.2
20260505231516 50 116 0.0 1.7 0.00 0.02 0.02 83 1006.2
20260505230014 50 78 0.0 0.9 0.00 0.02 0.02 83 1006.4
20260505224514 50 239 0.0 1.7 0.00 0.02 0.02 82 1006.4
20260505223012 49 68 0.0 3.5 0.00 0.02 0.02 81 1006.4
20260505221511 49 60 0.0 2.6 0.00 0.02 0.02 81 1006.4
20260505220011 49 217 0.0 3.5 0.00 0.02 0.02 79 1006.5
20260505214509 49 136 0.0 2.6 0.00 0.02 0.02 77 1006.6
20260505213009 49 134 0.0 0.9 0.00 0.02 0.02 76 1006.7
20260505211508 49 105 0.0 2.6 0.00 0.02 0.02 75 1006.4
20260505210009 49 153 0.0 1.7 0.00 0.02 0.02 72 1006.7
20260505204506 49 118 0.0 1.7 0.00 0.02 0.02 74 1006.8
20260505203006 48 136 0.0 0.0 0.00 0.02 0.02 74 1006.8
20260505201506 48 251 0.0 0.0 0.00 0.02 0.02 72 1007.1
20260505200007 48 263 0.0 0.0 0.00 0.02 0.02 69 1007.0
20260505194503 47 257 0.0 0.0 0.00 0.02 0.02 69 1006.9
20260505193003 47 252 0.0 0.0 0.00 0.02 0.02 68 1006.9
20260505191502 47 342 0.0 0.0 0.00 0.02 0.02 67 1006.9
20260505190107 46 346 0.0 0.0 0.00 0.02 0.02 72 1006.7
20260505184601 46 348 0.0 0.0 0.00 0.02 0.02 79 1006.6
20260505183056 45 345 0.0 0.0 0.00 0.02 0.02 80 1006.4
20260505181556 45 351 0.0 0.0 0.01 0.02 0.02 80 1006.5
20260505180054 45 4 0.0 0.0 0.02 0.02 0.02 79 1006.4
20260505174553 44 11 0.0 0.0 0.02 0.02 0.02 84 1006.0
20260505173054 43 22 0.9 2.6 0.02 0.02 0.02 86 1006.0
20260505171552 43 16 3.5 3.5 0.01 0.01 0.01 86 1005.9
20260505170049 43 16 2.6 3.5 0.00 0.00 0.00 84 1005.8
20260505164555 44 9 3.5 4.3 0.00 0.00 0.00 83 1005.8
20260505163049 44 343 2.6 4.3 0.00 0.00 0.00 84 1006.2
20260505161546 44 336 4.3 7.0 0.00 0.00 0.00 82 1006.0
20260505153047 44 29 5.2 7.0 0.00 0.00 0.00 82 1005.4
20260505151545 43 338 5.2 9.6 0.00 0.00 0.00 84 1005.6
20260505124523 45 18 7.8 9.6 0.00 0.00 0.00 83 1002.7
20260505123022 45 355 7.8 9.6 0.00 0.00 0.00 86 1002.6
20260505121524 44 351 8.7 11.3 0.00 0.00 0.00 85 1002.7
20260505120018 44 341 8.7 10.4 0.00 0.00 0.00 86 1002.0
20260505114515 44 340 8.7 11.3 0.00 0.00 0.00 87 1001.9
20260505113013 44 340 7.8 13.0 0.00 0.00 0.00 88 1001.6
20260505111511 44 13 9.6 13.0 0.00 0.00 0.00 88 1001.4